Date_and_time,latitude,longitude,wind_speed,RelWindDirFrom,WindDirFrom,air_pressure,air_temperature,relative_humidity,Temp,platform_speed_wrt_ground,air_pressure_at_mean_sea_level,platform_orientation
2019-06-17 00:00,50.63041,-96.98077,8.2,10.8,2,987.37,16.2,63,17.14,0.0,1013.67,360.0
2019-06-17 00:10,50.6304266666667,-96.9807716666667,7.8,11.0,358,987.38,16.3,62,17.14,0.0,1013.68,360.0
2019-06-17 00:20,50.6304266666667,-96.9807733333333,7.0,9.3,353,987.37,16.3,65,17.14,0.0,1013.67,360.0
2019-06-17 00:30,50.6304283333333,-96.9807783333333,7.3,10.1,356,987.39,16.3,67,17.14,0.0,1013.68,360.0
2019-06-17 00:40,50.6304283333333,-96.9807783333333,8.1,10.0,0,987.40,16.4,69,17.13,0.0,1013.68,360.0
2019-06-17 00:50,50.6304266666667,-96.98078,8.1,10.1,1,987.45,16.4,68,17.12,0.0,1013.72,360.0
2019-06-17 01:00,50.6304266666667,-96.98078,8.2,11.1,359,987.42,16.5,66,17.10,0.0,1013.69,360.0
2019-06-17 01:10,50.6304366666667,-96.9807566666667,9.2,11.3,360,987.39,16.5,65,17.08,0.0,1013.65,360.0
2019-06-17 01:20,50.6304333333333,-96.98076,10.4,12.5,2,987.38,16.5,66,17.07,0.0,1013.65,360.0
2019-06-17 01:30,50.6304366666667,-96.9807633333333,8.1,10.7,357,987.50,16.6,67,17.05,0.0,1013.77,360.0
2019-06-17 01:40,50.6304383333333,-96.980765,7.5,10.2,357,987.60,16.5,68,17.05,0.0,1013.87,360.0
2019-06-17 01:50,50.6304433333333,-96.9807666666667,10.8,13.4,5,987.58,16.6,68,17.05,0.0,1013.84,360.0
2019-06-17 02:00,50.6304433333333,-96.9807666666667,9.1,12.4,357,987.59,16.5,68,17.04,0.0,1013.85,38.0
2019-06-17 02:10,50.630445,-96.98077,10.3,14.0,360,987.62,16.4,68,17.03,0.0,1013.89,38.0
2019-06-17 02:20,50.6304416666667,-96.98077,9.1,11.6,357,987.70,16.4,68,17.02,0.0,1013.97,38.0
2019-06-17 02:30,50.63044,-96.98077,8.8,12.5,356,987.77,16.4,68,17.01,0.0,1014.03,38.0
2019-06-17 02:40,50.6304216666667,-96.9807833333333,8.3,11.8,357,987.80,16.5,68,17.01,0.0,1014.07,38.0
2019-06-17 02:50,50.6304266666667,-96.9807666666667,10.5,14.5,357,987.77,16.4,71,17.01,0.0,1014.03,38.0
2019-06-17 03:00,50.6304416666667,-96.98079,11.4,15.5,359,987.86,16.4,69,17.00,0.0,1014.12,327.5
2019-06-17 03:10,50.63044,-96.9807816666667,14.3,16.9,11,987.90,16.4,69,17.01,0.0,1014.16,327.5
2019-06-17 03:20,50.6304383333333,-96.98077,13.6,16.5,16,987.97,16.4,68,17.02,0.0,1014.23,327.5
2019-06-17 03:30,50.6304416666667,-96.9807716666667,12.7,14.3,8,987.96,16.4,70,17.03,0.0,1014.22,327.5
2019-06-17 03:40,50.6304433333333,-96.9807716666667,13.2,15.2,10,987.97,16.5,70,17.02,0.0,1014.23,327.5
2019-06-17 03:50,50.6304433333333,-96.9807716666667,13.8,16.9,7,987.97,16.4,71,17.02,0.0,1014.24,327.5
2019-06-17 04:00,50.6304433333333,-96.9807716666667,12.6,16.6,1,988.01,16.3,70,17.04,0.0,1014.28,32.5
2019-06-17 04:10,50.6304383333333,-96.9807683333333,9.3,12.8,358,988.12,16.1,71,17.05,0.0,1014.41,32.5
2019-06-17 04:20,50.6304383333333,-96.9807633333333,8.6,12.3,349,988.11,16.1,69,17.06,0.0,1014.40,32.5
2019-06-17 04:30,50.6304383333333,-96.9807683333333,7.7,10.9,345,988.14,15.9,66,17.04,0.0,1014.43,32.5
2019-06-17 04:40,50.6304366666667,-96.9807666666667,6.9,8.8,340,988.15,15.7,67,17.02,0.0,1014.46,32.5
2019-06-17 04:50,50.6304383333333,-96.9807666666667,8.0,10.9,335,987.98,15.3,69,17.00,0.0,1014.31,32.5
2019-06-17 05:00,50.6304383333333,-96.9807666666667,8.2,10.3,335,987.89,15.1,73,17.00,0.0,1014.22,90.0
2019-06-17 05:10,50.6304383333333,-96.9807666666667,8.2,11.5,336,987.91,14.9,76,17.01,0.0,1014.24,90.0
2019-06-17 05:20,50.63044,-96.9807666666667,7.8,10.7,340,987.91,15.0,76,17.01,0.0,1014.24,90.0
2019-06-17 05:30,50.630435,-96.9807583333333,6.0,8.7,331,987.90,15.0,73,17.00,0.0,1014.23,90.0
2019-06-17 05:40,50.630435,-96.9807566666667,6.9,8.9,339,987.91,15.0,73,16.99,0.0,1014.24,90.0
2019-06-17 05:50,50.630435,-96.9807583333333,5.9,8.4,329,987.89,15.0,73,16.99,0.0,1014.23,90.0
2019-06-17 06:00,50.6304433333333,-96.9808016666667,6.8,10.2,327,987.82,14.8,74,16.99,0.0,1014.17,270.0
2019-06-17 06:10,50.6304366666667,-96.98078,6.4,8.8,317,987.73,14.7,74,16.99,0.0,1014.09,270.0
2019-06-17 06:20,50.6304383333333,-96.9807716666667,6.5,9.3,328,987.82,14.6,75,16.99,0.0,1014.19,270.0
2019-06-17 06:30,50.6304066666667,-96.980765,7.1,9.6,330,987.83,14.5,76,16.98,0.0,1014.22,270.0
2019-06-17 06:40,50.6304283333333,-96.9807583333333,7.2,9.9,329,987.85,14.4,76,16.98,0.0,1014.25,270.0
2019-06-17 06:50,50.6304583333333,-96.9807616666667,7.4,9.3,333,987.89,14.4,76,16.98,0.0,1014.31,270.0
2019-06-17 07:00,50.6304416666667,-96.9807683333333,7.3,9.9,332,987.80,14.4,75,16.98,0.0,1014.22,90.0
2019-06-17 07:10,50.6304433333333,-96.9807633333333,8.8,12.5,340,987.72,14.5,74,16.98,0.0,1014.13,90.0
2019-06-17 07:20,50.6304416666667,-96.980765,9.5,12.2,344,987.63,14.7,75,16.98,0.0,1014.03,90.0
2019-06-17 07:30,50.6304416666667,-96.980765,9.4,11.7,343,987.71,14.7,75,16.97,0.0,1014.11,90.0
2019-06-17 07:40,50.6304416666667,-96.9807666666667,8.9,13.0,341,987.73,14.7,75,16.97,0.0,1014.14,90.0
2019-06-17 07:50,50.6304416666667,-96.9807666666667,8.8,12.2,339,987.72,14.7,74,16.96,0.0,1014.13,90.0
2019-06-17 08:00,50.6304416666667,-96.9807683333333,8.6,10.4,338,987.68,14.8,74,16.96,0.0,1014.10,90.0
2019-06-17 08:10,50.6304433333333,-96.9807683333333,7.5,10.2,328,987.64,14.5,73,16.95,0.0,1014.07,90.0
2019-06-17 08:20,50.6304433333333,-96.9807683333333,7.5,10.5,322,987.63,14.2,76,16.95,0.0,1014.08,90.0
2019-06-17 08:30,50.6304433333333,-96.9807683333333,6.9,9.7,322,987.69,14.1,77,16.94,0.0,1014.16,90.0
2019-06-17 08:40,50.6304433333333,-96.9807666666667,6.7,10.5,326,987.74,14.0,78,16.94,0.0,1014.21,90.0
2019-06-17 08:50,50.6304416666667,-96.9807666666667,6.7,9.1,321,987.80,14.0,78,16.93,0.0,1014.27,90.0
2019-06-17 09:00,50.6304416666667,-96.9807683333333,6.0,8.5,320,987.82,13.8,80,16.93,0.0,1014.29,90.0
2019-06-17 09:10,50.6304416666667,-96.9807683333333,5.7,8.4,323,987.85,13.7,82,16.91,0.0,1014.31,90.0
2019-06-17 09:20,50.6304416666667,-96.98077,6.4,9.1,329,987.87,13.7,83,16.91,0.0,1014.34,90.0
2019-06-17 09:30,50.6304416666667,-96.98077,6.4,8.8,333,987.87,13.9,81,16.91,0.0,1014.34,90.0
2019-06-17 09:40,50.6304416666667,-96.98077,7.5,10.2,338,987.86,14.1,78,16.90,0.0,1014.31,90.0
2019-06-17 09:50,50.63044,-96.98077,9.1,12.8,346,987.89,14.3,76,16.90,0.0,1014.33,90.0
2019-06-17 10:00,50.63044,-96.98077,9.6,12.7,347,987.91,14.4,77,16.90,0.0,1014.36,90.0
2019-06-17 10:10,50.63044,-96.98077,9.6,12.9,348,987.93,14.5,75,16.90,0.0,1014.39,90.0
2019-06-17 10:20,50.63044,-96.9807716666667,8.9,11.8,343,987.97,14.3,76,16.90,0.0,1014.45,90.0
2019-06-17 10:30,50.63044,-96.98077,8.3,11.8,338,988.03,14.1,76,16.90,0.0,1014.52,90.0
2019-06-17 10:40,50.63044,-96.98077,7.6,9.4,340,988.14,13.9,76,16.89,0.0,1014.64,90.0
2019-06-17 10:50,50.6304466666667,-96.9807866666667,7.3,9.0,342,988.26,13.8,77,16.88,0.0,1014.77,90.0
2019-06-17 11:00,50.6304383333333,-96.9807716666667,6.4,8.3,335,988.30,13.6,78,16.87,0.0,1014.83,270.0
2019-06-17 11:10,50.63043,-96.9807616666667,5.4,8.1,324,988.31,13.3,80,16.86,0.0,1014.86,270.0
2019-06-17 11:20,50.630465,-96.9807783333333,4.6,7.1,328,988.44,13.1,82,16.85,0.0,1014.99,270.0
2019-06-17 11:30,50.6304483333333,-96.9807733333333,4.3,7.5,32,988.66,13.3,84,16.83,0.0,1015.20,270.0
2019-06-17 11:40,50.6304383333333,-96.980775,5.7,7.5,1,988.63,13.8,84,16.82,0.0,1015.13,270.0
2019-06-17 11:50,50.6304533333333,-96.9807633333333,5.2,7.1,356,988.67,13.9,84,16.82,0.0,1015.16,270.0
2019-06-17 12:00,50.6304466666667,-96.9807716666667,4.7,6.9,349,988.70,13.9,85,16.81,0.0,1015.19,347.4
2019-06-17 12:10,50.6304433333333,-96.9807683333333,3.9,5.7,319,988.75,13.5,86,16.81,0.0,1015.27,347.4
2019-06-17 12:20,50.6304433333333,-96.9807766666667,4.5,6.5,335,988.79,13.2,90,16.82,0.0,1015.34,347.4
2019-06-17 12:30,50.6304433333333,-96.9807783333333,5.0,6.9,328,988.76,13.3,89,16.80,0.0,1015.31,347.4
2019-06-17 12:40,50.6304433333333,-96.9807766666667,4.8,6.9,316,988.79,13.2,89,16.80,0.0,1015.35,347.4
2019-06-17 12:50,50.6304766666667,-96.9807816666667,5.0,7.0,319,988.85,13.1,88,16.80,0.0,1015.42,347.4
2019-06-17 13:00,50.630445,-96.9807733333333,5.1,6.6,316,988.82,13.1,88,16.81,0.0,1015.41,270.0
2019-06-17 13:10,50.6304433333333,-96.9807783333333,4.6,6.1,313,988.82,13.0,90,16.82,0.0,1015.41,270.0
2019-06-17 13:20,50.6304433333333,-96.9807766666667,4.0,5.7,315,988.85,13.1,90,16.83,0.0,1015.44,270.0
2019-06-17 13:30,50.630445,-96.9807766666667,3.8,6.1,314,988.84,13.3,90,16.83,0.0,1015.40,270.0
2019-06-17 13:40,50.6304433333333,-96.9807766666667,4.2,6.2,323,988.83,13.5,89,16.83,0.0,1015.37,270.0
2019-06-17 13:50,50.630445,-96.9807766666667,4.4,6.0,338,988.93,13.8,90,16.82,0.0,1015.46,270.0
2019-06-17 14:00,50.630445,-96.980775,3.9,5.8,335,989.01,14.0,90,16.81,0.0,1015.55,90.0
2019-06-17 14:10,50.6304466666667,-96.9807733333333,3.7,5.2,333,989.08,14.2,88,16.81,0.0,1015.63,90.0
2019-06-17 14:20,50.630445,-96.9807716666667,2.5,4.4,348,989.15,14.5,88,16.80,0.0,1015.68,90.0
2019-06-17 14:30,50.630445,-96.9807716666667,2.6,4.5,342,989.19,14.6,87,16.82,0.0,1015.73,90.0
2019-06-17 14:40,50.630445,-96.9807716666667,3.2,4.9,321,989.17,14.8,86,16.82,0.0,1015.70,90.0
2019-06-17 14:50,50.6304533333333,-96.9807783333333,4.2,5.9,336,989.28,15.0,85,16.82,0.0,1015.80,90.0
2019-06-17 15:00,50.6304316666667,-96.9807516666667,4.1,5.4,324,989.30,15.1,83,16.83,0.0,1015.82,138.8
2019-06-17 15:10,50.630435,-96.9807766666667,3.7,5.1,334,989.30,15.3,83,16.84,0.0,1015.81,138.8
2019-06-17 15:20,50.63044,-96.9807766666667,4.3,7.6,14,989.39,15.6,83,16.85,0.0,1015.88,138.8
2019-06-17 15:30,50.6304366666667,-96.9807716666667,5.7,7.9,36,989.48,15.4,86,16.85,0.0,1015.97,138.8
2019-06-17 15:40,50.630435,-96.9807716666667,3.2,5.0,19,989.43,15.3,85,16.87,0.0,1015.91,138.8
2019-06-17 15:50,50.630435,-96.9807683333333,6.1,7.6,24,989.50,15.3,86,16.88,0.0,1015.97,138.8
2019-06-17 16:00,50.630435,-96.9807666666667,5.4,6.7,13,989.51,15.4,85,16.88,0.0,1015.97,131.7
2019-06-17 16:10,50.630435,-96.9807666666667,5.3,6.7,12,989.55,15.4,84,16.88,0.0,1016.00,131.7
2019-06-17 16:20,50.6304366666667,-96.980765,5.2,6.2,9,989.58,15.5,83,16.93,0.0,1016.01,131.7
2019-06-17 16:30,50.630455,-96.9807633333333,4.9,5.8,13,989.56,15.6,84,16.97,0.0,1015.98,131.7
2019-06-17 16:40,50.6304566666667,-96.9807633333333,5.6,7.3,15,989.58,15.7,84,16.96,0.0,1015.99,131.7
2019-06-17 16:50,50.6304566666667,-96.9807683333333,4.3,5.7,8,989.62,15.8,81,16.92,0.0,1016.01,131.7
2019-06-17 17:00,50.6304366666667,-96.980755,5.1,7.0,32,989.62,16.0,79,16.88,0.0,1016.00,119.2
2019-06-17 17:10,50.6304466666667,-96.980765,6.0,7.0,24,989.72,15.9,81,16.86,0.0,1016.09,119.2
2019-06-17 17:20,50.6304466666667,-96.980765,4.4,5.6,22,989.72,16.0,78,16.89,0.0,1016.10,119.2
2019-06-17 17:30,50.6304483333333,-96.980765,3.1,3.8,22,989.68,16.3,77,16.89,0.0,1016.06,119.2
2019-06-17 17:40,50.6304483333333,-96.9807616666667,3.1,4.2,27,989.64,16.6,77,16.87,0.0,1015.99,119.2
2019-06-17 17:50,50.6304483333333,-96.9807633333333,4.6,5.7,22,989.52,16.8,77,16.86,0.0,1015.86,119.2
2019-06-17 18:00,50.63045,-96.980765,6.2,7.8,29,989.47,16.9,77,16.88,0.0,1015.80,345.5
2019-06-17 18:10,50.630465,-96.9807933333333,7.4,8.3,41,989.49,16.9,77,16.89,0.0,1015.82,345.5
2019-06-17 18:20,50.6304583333333,-96.9807716666667,7.0,8.1,44,989.52,16.8,76,16.89,0.0,1015.84,345.5
2019-06-17 18:30,50.6304516666667,-96.98076,5.7,6.5,33,989.51,16.9,75,16.89,0.0,1015.83,345.5
2019-06-17 18:40,50.6304583333333,-96.9807616666667,5.3,6.0,50,989.52,17.1,75,16.90,0.0,1015.83,345.5
2019-06-17 18:50,50.6304533333333,-96.980815,5.8,7.3,67,989.55,17.4,75,16.98,0.0,1015.83,345.5
2019-06-17 19:00,50.63044,-96.9807566666667,6.9,8.2,75,989.52,18.0,74,17.03,0.0,1015.78,12.6
2019-06-17 19:10,50.6304416666667,-96.980765,7.3,8.1,73,989.54,18.1,74,17.00,0.0,1015.79,12.6
2019-06-17 19:20,50.6304433333333,-96.9807666666667,7.1,8.5,62,989.53,17.8,75,16.97,0.0,1015.78,12.6
2019-06-17 19:30,50.63048,-96.98076,8.0,8.9,53,989.54,17.5,76,16.97,0.0,1015.79,12.6
2019-06-17 19:40,50.6304616666667,-96.9807683333333,9.0,10.5,46,989.58,17.5,77,17.01,0.0,1015.82,12.6
2019-06-17 19:50,50.6304483333333,-96.98078,8.7,10.1,42,989.59,17.6,77,17.03,0.0,1015.83,12.6
2019-06-17 20:00,50.6304483333333,-96.98078,7.7,8.6,40,989.57,17.8,76,17.02,0.0,1015.79,302.3
2019-06-17 20:10,50.6304583333333,-96.9807583333333,7.2,8.4,43,989.62,18.0,78,17.05,0.0,1015.84,302.3
2019-06-17 20:20,50.63045,-96.98076,6.4,7.5,45,989.70,18.4,70,17.06,0.0,1015.90,302.3
2019-06-17 20:30,50.63045,-96.980765,6.5,7.7,56,989.79,18.7,69,17.06,0.0,1015.97,302.3
2019-06-17 20:40,50.6304533333333,-96.9807683333333,6.9,8.1,71,989.85,19.2,68,17.10,0.0,1015.99,302.3
2019-06-17 20:50,50.6304283333333,-96.9807633333333,7.8,9.9,84,989.82,19.9,66,17.08,0.0,1015.91,302.3
2019-06-17 21:00,50.6304516666667,-96.980775,6.3,7.6,81,989.77,19.7,64,17.09,0.0,1015.87,270.0
2019-06-17 21:10,50.6304983333333,-96.980825,5.7,6.6,81,989.71,19.8,58,17.10,0.0,1015.81,270.0
2019-06-17 21:20,50.63046,-96.98078,4.8,5.7,84,989.67,20.2,55,17.17,0.0,1015.76,270.0
2019-06-17 21:30,50.630455,-96.9807783333333,4.1,5.0,87,989.70,20.4,54,17.30,0.0,1015.78,270.0
2019-06-17 21:40,50.6304566666667,-96.9807783333333,4.8,5.8,94,989.72,20.7,54,17.35,0.0,1015.78,270.0
2019-06-17 21:50,50.6304433333333,-96.9807766666667,5.0,5.7,99,989.76,20.9,56,17.38,0.0,1015.80,270.0
2019-06-17 22:00,50.6304333333333,-96.9807733333333,5.2,6.4,105,989.73,21.0,58,17.38,0.0,1015.76,216.6
2019-06-17 22:10,50.63045,-96.980765,5.5,6.5,108,989.66,20.3,60,17.37,0.0,1015.70,216.6
2019-06-17 22:20,50.6304533333333,-96.9807783333333,4.6,5.6,109,989.63,20.4,58,17.42,0.0,1015.66,216.6
2019-06-17 22:30,50.6304366666667,-96.9807533333333,4.4,5.0,115,989.57,20.2,57,17.63,0.0,1015.58,216.6
2019-06-17 22:40,50.630445,-96.98078,3.6,4.4,115,989.52,20.3,55,17.80,0.0,1015.50,216.6
2019-06-17 22:50,50.63045,-96.9807466666667,1.2,2.9,98,989.56,20.6,53,18.04,0.0,1015.53,216.6
2019-06-17 23:00,50.6304516666667,-96.9807516666667,5.2,8.8,70,989.56,20.9,54,18.08,0.0,1015.52,75.8
2019-06-17 23:10,50.6304516666667,-96.9807666666667,9.5,14.5,73,989.56,19.9,55,17.89,0.0,1015.54,75.8
2019-06-17 23:20,50.630455,-96.98077,5.9,10.0,76,989.59,19.8,58,17.77,0.0,1015.57,75.8
2019-06-17 23:30,50.6304333333333,-96.9807566666667,7.5,9.3,78,989.62,19.0,64,17.77,0.0,1015.62,75.8
2019-06-17 23:40,50.63044,-96.9807833333333,5.6,7.6,89,989.65,18.9,65,17.75,0.0,1015.65,75.8
